Satellite: NOAA-12 Catalog number: 21263 Epoch time: 12264.64622166 Element set: 547 Inclination: 098.7245 deg RA of node: 285.8447 deg Eccentricity: 0.0013025 Arg of perigee: 286.0182 deg Mean anomaly: 073.9558 deg Mean motion: 14.25518415 rev/day Decay rate: 4.8e-07 rev/day^2 Epoch rev: 11015 Checksum: 296
Satellite: MET-3/5 Catalog number: 21655 Epoch time: 12264.48875413 Element set: 508 Inclination: 082.5524 deg RA of node: 084.8580 deg Eccentricity: 0.0014453 Arg of perigee: 086.0039 deg Mean anomaly: 274.2736 deg Mean motion: 13.17043225 rev/day Decay rate: -2.89e-06 rev/day^2 Epoch rev: 1443 Checksum: 298
Satellite: MET-2/21 Catalog number: 22782 Epoch time: 12264.75193025 Element set: 532 Inclination: 082.5486 deg RA of node: 316.6943 deg Eccentricity: 0.0021016 Arg of perigee: 243.4588 deg Mean anomaly: 116.4423 deg Mean motion: 13.83688631 rev/day Decay rate: 4.8e-07 rev/day^2 Epoch rev: 96238 Checksum: 311
Satellite: OKEAN-4 Catalog number: 23317 Epoch time: 12263.97700204 Element set: 0005 Inclination: 082.5401 deg RA of node: 302.5809 deg Eccentricity: 0.0023016 Arg of perigee: 043.0031 deg Mean anomaly: 317.2979 deg Mean motion: 14.83948400 rev/day Decay rate: 5.31e-06 rev/day^2 Epoch rev: 96886 Checksum: 273
Satellite: NOAA-14 Catalog number: 23455 Epoch time: 12264.65287679 Element set: 27 Inclination: 098.8240 deg RA of node: 346.9320 deg Eccentricity: 0.0010322 Arg of perigee: 046.7470 deg Mean anomaly: 313.4566 deg Mean motion: 14.13870487 rev/day Decay rate: -1.1e-07 rev/day^2 Epoch rev: 91428 Checksum: 301
Satellite: NOAA-15 Catalog number: 25338 Epoch time: 12264.19158237 Element set: 407 Inclination: 098.7005 deg RA of node: 250.2503 deg Eccentricity: 0.0010456 Arg of perigee: 187.3498 deg Mean anomaly: 172.7516 deg Mean motion: 14.25119434 rev/day Decay rate: 1.49e-06 rev/day^2 Epoch rev: 74638 Checksum: 306
Satellite: RESURS Catalog number: 25394 Epoch time: 12263.95883827 Element set: 0217 Inclination: 098.3292 deg RA of node: 247.2500 deg Eccentricity: 0.0001506 Arg of perigee: 006.6629 deg Mean anomaly: 353.4569 deg Mean motion: 14.24296357 rev/day Decay rate: 1.3e-07 rev/day^2 Epoch rev: 73789 Checksum: 317
Satellite: FENGYUN1 Catalog number: 25730 Epoch time: 12263.89829852 Element set: 0713 Inclination: 098.8525 deg RA of node: 221.2707 deg Eccentricity: 0.0020350 Arg of perigee: 087.7185 deg Mean anomaly: 272.6296 deg Mean motion: 14.09745082 rev/day Decay rate: 1.22e-06 rev/day^2 Epoch rev: 68795 Checksum: 321
Satellite: OKEAN-0 Catalog number: 25860 Epoch time: 12263.94184177 Element set: 0762 Inclination: 097.9474 deg RA of node: 224.7093 deg Eccentricity: 0.0000888 Arg of perigee: 042.5837 deg Mean anomaly: 317.5438 deg Mean motion: 14.74300927 rev/day Decay rate: 3.45e-06 rev/day^2 Epoch rev: 70853 Checksum: 324
Satellite: NOAA-16 Catalog number: 26536 Epoch time: 12264.22252652 Element set: 896 Inclination: 099.0843 deg RA of node: 307.7708 deg Eccentricity: 0.0010659 Arg of perigee: 172.3830 deg Mean anomaly: 187.7496 deg Mean motion: 14.12781288 rev/day Decay rate: -3.7e-07 rev/day^2 Epoch rev: 61845 Checksum: 333
Satellite: NOAA-17 Catalog number: 27453 Epoch time: 12264.27069534 Element set: 841 Inclination: 098.3302 deg RA of node: 286.4825 deg Eccentricity: 0.0010853 Arg of perigee: 235.2997 deg Mean anomaly: 124.7158 deg Mean motion: 14.24482219 rev/day Decay rate: -3.2e-07 rev/day^2 Epoch rev: 53229 Checksum: 310
Satellite: NOAA-18 Catalog number: 28654 Epoch time: 12264.32401044 Element set: 323 Inclination: 099.0574 deg RA of node: 223.2551 deg Eccentricity: 0.0013443 Arg of perigee: 246.7041 deg Mean anomaly: 113.2736 deg Mean motion: 14.11699173 rev/day Decay rate: -4.7e-07 rev/day^2 Epoch rev: 37798 Checksum: 290
Satellite: NOAA-19 Catalog number: 33591 Epoch time: 12264.35334929 Element set: 512 Inclination: 098.8703 deg RA of node: 202.9893 deg Eccentricity: 0.0014877 Arg of perigee: 109.9323 deg Mean anomaly: 250.3459 deg Mean motion: 14.11385264 rev/day Decay rate: -1.20e-06 rev/day^2 Epoch rev: 18643 Checksum: 313
/EX SB KEPS @ AMSAT $ORB12264.M Orbital Elements 12264.MISC
HR AMSAT ORBITAL ELEMENTS FOR MANNED AND MISCELLANEOUS SATELLITES FROM WA5QGD FORT WORTH,TX September 20, 2012 BID: ORB12264.M TO ALL RADIO AMATEURS BT
Satellite: HUBBLE Catalog number: 20580 Epoch time: 12263.23787721 Element set: 73 Inclination: 028.4694 deg RA of node: 247.9511 deg Eccentricity: 0.0002992 Arg of perigee: 341.4422 deg Mean anomaly: 018.6077 deg Mean motion: 15.02787815 rev/day Decay rate: 1.168e-05 rev/day^2 Epoch rev: 2889 Checksum: 304
Satellite: ISS Catalog number: 25544 Epoch time: 12264.85068697 Element set: 337 Inclination: 051.6501 deg RA of node: 005.8241 deg Eccentricity: 0.0018299 Arg of perigee: 083.4530 deg Mean anomaly: 012.3090 deg Mean motion: 15.49986975 rev/day Decay rate: 1.2477e-04 rev/day^2 Epoch rev: 79288 Checksum: 327
Satellite: CO-58 Catalog number: 28895 Epoch time: 12263.61520876 Element set: 0281 Inclination: 097.9006 deg RA of node: 125.6737 deg Eccentricity: 0.0016729 Arg of perigee: 211.7931 deg Mean anomaly: 148.2277 deg Mean motion: 14.60745436 rev/day Decay rate: 4.82e-06 rev/day^2 Epoch rev: 36744 Checksum: 335
Satellite: FALCON Catalog number: 30776 Epoch time: 12264.80038212 Element set: 441 Inclination: 035.4321 deg RA of node: 052.5540 deg Eccentricity: 0.0001251 Arg of perigee: 094.2947 deg Mean anomaly: 265.7915 deg Mean motion: 15.08211491 rev/day Decay rate: 3.022e-05 rev/day^2 Epoch rev: 30469 Checksum: 258
Satellite: MAST Catalog number: 31126 Epoch time: 12264.58877668 Element set: 562 Inclination: 097.8758 deg RA of node: 270.1207 deg Eccentricity: 0.0093599 Arg of perigee: 172.6549 deg Mean anomaly: 187.6046 deg Mean motion: 14.54253593 rev/day Decay rate: 1.96e-06 rev/day^2 Epoch rev: 28813 Checksum: 348
Satellite: CAPE1 Catalog number: 31130 Epoch time: 12264.49701181 Element set: 572 Inclination: 097.8856 deg RA of node: 266.3713 deg Eccentricity: 0.0101125 Arg of perigee: 186.8348 deg Mean anomaly: 173.1481 deg Mean motion: 14.53065437 rev/day Decay rate: 2.75e-06 rev/day^2 Epoch rev: 28761 Checksum: 298
Satellite: COMPASS Catalog number: 32787 Epoch time: 12263.65806792 Element set: 0415 Inclination: 097.7921 deg RA of node: 322.8746 deg Eccentricity: 0.0016148 Arg of perigee: 109.2989 deg Mean anomaly: 250.9980 deg Mean motion: 14.84335641 rev/day Decay rate: 1.166e-05 rev/day^2 Epoch rev: 23782 Checksum: 335
Satellite: AAUSAT2 Catalog number: 32788 Epoch time: 12263.67376070 Element set: 0407 Inclination: 097.7948 deg RA of node: 323.3276 deg Eccentricity: 0.0015819 Arg of perigee: 109.4936 deg Mean anomaly: 250.7983 deg Mean motion: 14.84687954 rev/day Decay rate: 1.686e-05 rev/day^2 Epoch rev: 23785 Checksum: 361
Satellite: DO-64 Catalog number: 32789 Epoch time: 12264.76367937 Element set: 422 Inclination: 097.8042 deg RA of node: 326.7945 deg Eccentricity: 0.0015607 Arg of perigee: 103.2497 deg Mean anomaly: 257.0453 deg Mean motion: 14.86419870 rev/day Decay rate: 2.720e-05 rev/day^2 Epoch rev: 23807 Checksum: 335
Satellite: CO-66 Catalog number: 32791 Epoch time: 12263.82155529 Element set: 0405 Inclination: 097.7887 deg RA of node: 322.6950 deg Eccentricity: 0.0017077 Arg of perigee: 110.5884 deg Mean anomaly: 249.7091 deg Mean motion: 14.83694205 rev/day Decay rate: 1.069e-05 rev/day^2 Epoch rev: 23777 Checksum: 341
Satellite: RS-30 Catalog number: 32953 Epoch time: 12264.90973255 Element set: 158 Inclination: 082.5001 deg RA of node: 235.6047 deg Eccentricity: 0.0020276 Arg of perigee: 097.0623 deg Mean anomaly: 263.2760 deg Mean motion: 12.43027804 rev/day Decay rate: 1.0e-07 rev/day^2 Epoch rev: 19645 Checksum: 275
Satellite: PHARMSAT Catalog number: 35002 Epoch time: 12226.86484473 Element set: 78 Inclination: 040.4341 deg RA of node: 050.6671 deg Eccentricity: 0.0012079 Arg of perigee: 300.9773 deg Mean anomaly: 059.0492 deg Mean motion: 16.39309245 rev/day Decay rate: 7.728342e-02 rev/day^2 Epoch rev: 18355 Checksum: 302
Satellite: METEOR-M Catalog number: 35865 Epoch time: 12264.78187189 Element set: 795 Inclination: 098.6444 deg RA of node: 317.2645 deg Eccentricity: 0.0002957 Arg of perigee: 121.0654 deg Mean anomaly: 239.0812 deg Mean motion: 14.21869220 rev/day Decay rate: -1.9e-07 rev/day^2 Epoch rev: 15618 Checksum: 320
Satellite: RS-38 Catalog number: 35869 Epoch time: 12264.71829117 Element set: 782 Inclination: 098.6396 deg RA of node: 317.1813 deg Eccentricity: 0.0005069 Arg of perigee: 126.5897 deg Mean anomaly: 233.5747 deg Mean motion: 14.22087424 rev/day Decay rate: 3.0e-07 rev/day^2 Epoch rev: 15619 Checksum: 334
Satellite: JUGNU Catalog number: 37839 Epoch time: 12263.08463629 Element set: 0230 Inclination: 019.9591 deg RA of node: 149.3875 deg Eccentricity: 0.0019439 Arg of perigee: 176.4778 deg Mean anomaly: 183.5649 deg Mean motion: 14.12082165 rev/day Decay rate: 6.20e-06 rev/day^2 Epoch rev: 04853 Checksum: 327
Satellite: SRMSAT Catalog number: 37841 Epoch time: 12263.90389899 Element set: 0234 Inclination: 019.9697 deg RA of node: 151.1619 deg Eccentricity: 0.0012085 Arg of perigee: 151.9329 deg Mean anomaly: 208.1728 deg Mean motion: 14.10162034 rev/day Decay rate: 2.64e-06 rev/day^2 Epoch rev: 04858 Checksum: 308
Satellite: RAX-2 Catalog number: 37853 Epoch time: 12263.81064625 Element set: 0297 Inclination: 101.7082 deg RA of node: 347.0971 deg Eccentricity: 0.0244275 Arg of perigee: 081.0342 deg Mean anomaly: 281.8420 deg Mean motion: 14.80791168 rev/day Decay rate: 4.066e-05 rev/day^2 Epoch rev: 04840 Checksum: 295
